FENGYUN 1C DEB, 30740

Orbit data source: Space-Track

FENGYUN 1C DEB, 30740 is space debris in SSO originally from a launch on Mon, 10 May 1999 UTC launched from the Taiyaun Space Center, China (TSC). Fengyun 1C debris stems from the Chinese weather satellite Fengyun-1C, which was intentionally destroyed by a Chinese anti-satellite missile in 2007. This event dramatically increased the amount of space debris, with thousands of trackable fragments posing hazards to satellites and human spaceflight. The Fengyun 1C debris cloud has become a focal point in discussions about space sustainability and the need for international regulations to prevent the creation of new debris.

Loading next visibility...
Identifier
30740, 1999-025ATA
Orbit
SSO
Country
Flag of CNCN / PRC
Related business
Manufacturer
Unknown
Mission
Spacecraft
Bus & Motor
Unknown
Mass
Unknown
Launch date (UTC)
1999-05-10 (27 years ago)
Launch vehicle
Unknown
Launch site
Taiyaun Space Center, China (TSC)
Object type
Payload
Rocket body
Debris
Shape & HBR
Unknown shape, 0.1 m
Radar Cross Section
Small (<0.1 m²)

Expand to show TLE details & history
Last TLE update: 12 hours ago

TLE from 12 hours ago
0 FENGYUN 1C DEB
1 30740U 99025ATA 26122.27683781  .00010257  00000-0  23765-2 0  9994
2 30740  98.6909 237.5518 0030239  70.6931 289.7531 14.54984529996898
Epoch: 2026-05-02T06:38Z
TLE epoch observation values (Epoch: 2026-05-02T06:38:38.786Z)
Latitude
-0.00003°
Longitude
-82.30686°
Altitude
705.191 km
Speed
7.507 km/s
True Right ascension
15h 50m 12s
True Declination
0° 00' 00"
Sunlit
Object was in full shadow at epoch
Visualization orbit readout
Latitude
Unknown
Longitude
Unknown
Altitude
Unknown
Speed
Unknown
Apparent Right ascension
Unknown
Apparent Declination
Unknown
Sunlit
N/A
Visualization observer readout
Local Sidereal Time
01:54:36
Azimuth
Unknown
Elevation
Unknown
Doppler factor
Unknown
Orbital elements
Apogee altitude
727.949 km
Perigee altitude
685.103 km
Semi-major axis
7,084.663 km
Eccentricity
0.00302
Inclination
98.6909°
RAAN
237.5518°
Arg. of periapsis
70.6931°
True anomaly
289.42656°
Mean anomaly
289.7531°
Eccentric anomaly
289.58987°
Mean motion
3.63969 °/min
Orbital period
98.91 mins
BSTAR
0.0023765
Loading maneuver chart data...
Computing Atmospheric mass density...

Documentation

Showing up to 5 results
|